When you browse on this site, cookies collect data to enhance your experience and personalize the content and advertising you see.
Visit our Privacy Policy to learn more. By continuing to use the site, you agree to this use of cookies and data.
  • In Hungary
  • List of Countries
  • For 7 days
  • Water Temperature
  • Weather Map
  • News
  • Weather Widgets
  • user-avatar
    Login

    Hourly Weather Barreiro

    Today, 20 November, Wednesday

    Time Temperature Precipitation Wind Pressure Humidity
    00:00 +11°C° 2 mm 6 mps 758 mmHg 89%
    01:00 +12°C° 2 mm 5 mps 757 mmHg 91%
    02:00 +12°C° 2 mm 5 mps 756 mmHg 93%
    03:00 +12°C° 1.2 mm 5 mps 756 mmHg 92%
    04:00 +12°C° 1.2 mm 4 mps 756 mmHg 92%
    05:00 +12°C° 0 mm 3 mps 756 mmHg 92%
    06:00 +12°C° 0 mm 3 mps 756 mmHg 89%
    07:00 +13°C° 0 mm 3 mps 756 mmHg 87%
    08:00 +13°C° 0 mm 3 mps 756 mmHg 84%
    09:00 +14°C° 0.1 mm 3 mps 756 mmHg 79%
    10:00 +16°C° 0.1 mm 3 mps 756 mmHg 75%
    11:00 +17°C° 0 mm 3 mps 756 mmHg 71%
    12:00 +17°C° 0.5 mm 4 mps 755 mmHg 70%
    13:00 +17°C° 0.5 mm 4 mps 755 mmHg 69%
    14:00 +17°C° 0.5 mm 4 mps 754 mmHg 68%
    15:00 +15°C° 0.2 mm 4 mps 755 mmHg 73%
    16:00 +14°C° 0.2 mm 4 mps 755 mmHg 78%
    17:00 +13°C° 0.2 mm 3 mps 755 mmHg 83%
    18:00 +13°C° 0.1 mm 3 mps 755 mmHg 84%
    19:00 +13°C° 0.1 mm 3 mps 755 mmHg 85%
    20:00 +12°C° 0.1 mm 3 mps 755 mmHg 85%
    21:00 +13°C° 0.1 mm 2 mps 756 mmHg 86%
    22:00 +13°C° 0.1 mm 2 mps 756 mmHg 86%
    23:00 +13°C° 0.1 mm 2 mps 756 mmHg 87%

    Tomorrow, 21 November, Thursday

    Time Temperature Precipitation Wind Pressure Humidity
    00:00 +13°C° 0.2 mm 2 mps 755 mmHg 87%
    01:00 +13°C° 0.2 mm 2 mps 755 mmHg 86%
    02:00 +13°C° 0.2 mm 2 mps 755 mmHg 86%
    03:00 +14°C° 0.2 mm 2 mps 755 mmHg 85%
    04:00 +14°C° 0.2 mm 2 mps 755 mmHg 84%
    05:00 +14°C° 0.2 mm 2 mps 755 mmHg 83%
    06:00 +14°C° 0.2 mm 2 mps 755 mmHg 83%
    07:00 +14°C° 0.2 mm 2 mps 755 mmHg 83%
    08:00 +14°C° 0.2 mm 2 mps 756 mmHg 83%
    09:00 +14°C° 0.2 mm 2 mps 755 mmHg 83%
    10:00 +15°C° 0.2 mm 1 mps 755 mmHg 82%
    11:00 +15°C° 0.2 mm 1 mps 755 mmHg 82%
    12:00 +15°C° 0.2 mm 1 mps 755 mmHg 78%
    13:00 +16°C° 0.2 mm 2 mps 755 mmHg 75%
    14:00 +16°C° 0.2 mm 2 mps 755 mmHg 71%
    15:00 +15°C° 0 mm 2 mps 755 mmHg 76%
    16:00 +14°C° 0 mm 2 mps 755 mmHg 80%
    17:00 +13°C° 0 mm 2 mps 755 mmHg 85%
    18:00 +13°C° 0 mm 2 mps 755 mmHg 85%
    19:00 +12°C° 0 mm 3 mps 755 mmHg 85%
    20:00 +12°C° 0 mm 3 mps 755 mmHg 85%
    21:00 +13°C° 0 mm 4 mps 754 mmHg 85%
    22:00 +13°C° 0 mm 5 mps 754 mmHg 85%
    23:00 +14°C° 0 mm 6 mps 753 mmHg 86%

    Day after tomorrow, 22 November, Friday

    Time Temperature Precipitation Wind Pressure Humidity
    00:00 +14°C° 1.1 mm 7 mps 752 mmHg 87%
    01:00 +15°C° 1.1 mm 8 mps 752 mmHg 89%
    02:00 +15°C° 1.1 mm 9 mps 751 mmHg 91%
    03:00 +14°C° 2.4 mm 10 mps 750 mmHg 91%
    04:00 +16°C° 2.4 mm 11 mps 750 mmHg 91%
    05:00 +16°C° 2.4 mm 11 mps 749 mmHg 91%
    06:00 +15°C° 1.2 mm 12 mps 748 mmHg 90%
    07:00 +17°C° 1.2 mm 12 mps 748 mmHg 89%
    08:00 +17°C° 1.2 mm 13 mps 747 mmHg 88%
    09:00 +17°C° 1.2 mm 12 mps 748 mmHg 83%
    10:00 +17°C° 1.2 mm 11 mps 748 mmHg 78%
    11:00 +17°C° 1.2 mm 11 mps 748 mmHg 72%
    12:00 +17°C° 0 mm 11 mps 748 mmHg 70%
    13:00 +17°C° 0 mm 10 mps 748 mmHg 69%
    14:00 +17°C° 0 mm 10 mps 748 mmHg 67%
    15:00 +16°C° 0.1 mm 10 mps 749 mmHg 69%
    16:00 +15°C° 0.1 mm 9 mps 749 mmHg 71%
    17:00 +13°C° 0.1 mm 9 mps 750 mmHg 73%
    18:00 +13°C° 0.1 mm 9 mps 751 mmHg 72%
    19:00 +13°C° 0.1 mm 10 mps 751 mmHg 71%
    20:00 +13°C° 0.1 mm 10 mps 752 mmHg 69%
    21:00 +13°C° 0.1 mm 9 mps 752 mmHg 68%
    22:00 +13°C° 0.1 mm 9 mps 753 mmHg 67%
    23:00 +12°C° 0.1 mm 9 mps 753 mmHg 66%

    23 November, Saturday

    Time Temperature Precipitation Wind Pressure Humidity
    00:00 +12°C° 0 mm 8 mps 754 mmHg 67%
    01:00 +12°C° 0 mm 8 mps 754 mmHg 68%
    02:00 +12°C° 0 mm 8 mps 754 mmHg 69%
    03:00 +11°C° 0 mm 7 mps 755 mmHg 70%
    04:00 +11°C° 0 mm 7 mps 755 mmHg 72%
    05:00 +11°C° 0 mm 7 mps 756 mmHg 74%
    06:00 +11°C° 0 mm 6 mps 756 mmHg 72%
    07:00 +13°C° 0 mm 6 mps 757 mmHg 71%
    08:00 +13°C° 0 mm 5 mps 758 mmHg 70%
    09:00 +14°C° 0 mm 6 mps 758 mmHg 65%
    10:00 +15°C° 0 mm 6 mps 759 mmHg 60%
    11:00 +16°C° 0 mm 6 mps 759 mmHg 56%
    12:00 +16°C° 0.1 mm 6 mps 759 mmHg 57%
    13:00 +16°C° 0.1 mm 6 mps 759 mmHg 59%
    14:00 +16°C° 0.1 mm 6 mps 759 mmHg 60%
    15:00 +14°C° 0 mm 5 mps 760 mmHg 64%
    16:00 +13°C° 0 mm 4 mps 760 mmHg 69%
    17:00 +12°C° 0 mm 4 mps 760 mmHg 74%
    18:00 +12°C° 0 mm 4 mps 761 mmHg 75%
    19:00 +11°C° 0 mm 3 mps 762 mmHg 76%
    20:00 +11°C° 0 mm 3 mps 762 mmHg 77%
    21:00 +11°C° 0 mm 3 mps 762 mmHg 78%
    22:00 +11°C° 0 mm 3 mps 763 mmHg 79%
    23:00 +11°C° 0 mm 3 mps 763 mmHg 80%

    24 November, Sunday

    Time Temperature Precipitation Wind Pressure Humidity
    00:00 +10°C° 0 mm 3 mps 763 mmHg 81%
    01:00 +10°C° 0 mm 2 mps 763 mmHg 82%
    02:00 +10°C° 0 mm 2 mps 763 mmHg 83%
    03:00 +10°C° 0 mm 2 mps 763 mmHg 84%
    04:00 +11°C° 0 mm 1 mps 763 mmHg 84%
    05:00 +11°C° 0 mm 1 mps 763 mmHg 85%
    06:00 +11°C° 0 mm 1 mps 763 mmHg 82%
    07:00 +12°C° 0 mm 1 mps 763 mmHg 79%
    08:00 +12°C° 0 mm 0 mps 764 mmHg 77%
    09:00 +14°C° 0 mm 1 mps 764 mmHg 73%
    10:00 +15°C° 0 mm 1 mps 764 mmHg 69%
    11:00 +16°C° 0 mm 1 mps 764 mmHg 65%
    12:00 +17°C° 0 mm 2 mps 764 mmHg 65%
    13:00 +17°C° 0 mm 2 mps 763 mmHg 65%
    14:00 +17°C° 0 mm 3 mps 763 mmHg 65%
    15:00 +16°C° 0 mm 2 mps 763 mmHg 71%
    16:00 +15°C° 0 mm 2 mps 763 mmHg 76%
    17:00 +14°C° 0 mm 2 mps 763 mmHg 82%
    18:00 +14°C° 0 mm 2 mps 764 mmHg 84%
    19:00 +14°C° 0 mm 2 mps 764 mmHg 85%
    20:00 +13°C° 0 mm 2 mps 764 mmHg 87%
    21:00 +13°C° 0 mm 3 mps 764 mmHg 87%
    22:00 +13°C° 0 mm 3 mps 764 mmHg 88%
    23:00 +13°C° 0 mm 3 mps 764 mmHg 88%

    25 November, Monday

    Time Temperature Precipitation Wind Pressure Humidity
    00:00 +13°C° 0 mm 3 mps 764 mmHg 89%
    01:00 +13°C° 0 mm 3 mps 764 mmHg 90%
    02:00 +14°C° 0 mm 3 mps 763 mmHg 91%
    03:00 +14°C° 0 mm 3 mps 763 mmHg 92%
    04:00 +14°C° 0 mm 3 mps 763 mmHg 92%
    05:00 +14°C° 0 mm 3 mps 763 mmHg 92%
    06:00 +16°C° 0 mm 3 mps 764 mmHg 92%
    07:00 +16°C° 0 mm 3 mps 764 mmHg 92%
    08:00 +15°C° 0 mm 4 mps 764 mmHg 91%
    09:00 +17°C° 0 mm 4 mps 764 mmHg 89%
    10:00 +17°C° 0 mm 4 mps 764 mmHg 87%
    11:00 +17°C° 0 mm 5 mps 764 mmHg 84%
    12:00 +17°C° 0.2 mm 5 mps 764 mmHg 85%
    13:00 +17°C° 0.2 mm 5 mps 763 mmHg 86%
    14:00 +17°C° 0.2 mm 5 mps 763 mmHg 87%
    15:00 +16°C° 0.2 mm 5 mps 763 mmHg 89%
    16:00 +16°C° 0.2 mm 5 mps 763 mmHg 91%
    17:00 +16°C° 0.2 mm 5 mps 763 mmHg 93%
    18:00 +17°C° 0.1 mm 4 mps 763 mmHg 94%
    19:00 +17°C° 0.1 mm 4 mps 764 mmHg 95%
    20:00 +17°C° 0.1 mm 4 mps 764 mmHg 96%
    21:00 +17°C° 0 mm 3 mps 764 mmHg 96%
    22:00 +17°C° 0 mm 3 mps 764 mmHg 96%
    23:00 +17°C° 0 mm 3 mps 763 mmHg 97%
    Show more